Powrót do katalogu

STARLINK-37249

AktywnyŁącznośćSSO
NORAD 68625·PAYLOAD·🇺🇸 United States

Wystrzelony Apr 5, 2026 z Vandenberg Space Force Base

Loading…

Następne Przeloty (najbliższe 24 godziny)

TLE

ŚwieżeSource: CelesTrak SupGP

Epoka: Sep 14, 2026, 21:33 UTC

1 68625C 26073Z   26257.89840278  .00086690  00000+0  26919-2 0  2577
2 68625  97.2853  96.0338 0001684  95.9368 304.7127 15.33384963    11

Śledź STARLINK-37249 w czasie rzeczywistym z AllMySat

Download on the App Store